This is the latest recevied weather packets stored in our database for station/object KB0BS-13. If no packets are shown the sender has not sent any weather packets the latest 10 day(s).
| Time | Temp. | Humidity | Pressure | Rain* | Wind** | Luminosity | Snow |
|---|---|---|---|---|---|---|---|
| 1777150583 | 8.33° C | 86% | 1019.7 hPa | 0 mm | - | 184 W/m² | - |
| 1777150280 | 8.33° C | 86% | 1019.7 hPa | 0 mm | - | 184 W/m² | - |
| 1777149978 | 8.89° C | 86% | 1019.6 hPa | 0 mm | - | 193 W/m² | - |
| 1777149673 | 8.33° C | 86% | 1019.7 hPa | 0 mm | - | 217 W/m² | - |
| 1777149370 | 8.33° C | 86% | 1019.6 hPa | 0 mm | - | 213 W/m² | - |
| 1777149065 | 8.33° C | 88% | 1019.7 hPa | 0 mm | - | 209 W/m² | - |
| 1777148760 | 8.33° C | 87% | 1019.7 hPa | 0 mm | - | 191 W/m² | - |
| 1777148457 | 7.78° C | 88% | 1019.6 hPa | 0 mm | - | 201 W/m² | - |
| 1777148153 | 7.78° C | 89% | 1019.1 hPa | 0 mm | - | 180 W/m² | - |
| 1777147849 | 7.78° C | 89% | 1019.3 hPa | 0 mm | - | 122 W/m² | - |
| 1777147545 | 7.78° C | 88% | 1019.2 hPa | 0 mm | - | 115 W/m² | - |
| 1777147241 | 7.78° C | 88% | 1019.4 hPa | 0 mm | - | 106 W/m² | - |
| 1777146937 | 7.78° C | 89% | 1019.4 hPa | 0 mm | - | 126 W/m² | - |
| 1777146633 | 7.78° C | 90% | 1019.1 hPa | 0 mm | - | 131 W/m² | - |
| 1777146328 | 8.33° C | 88% | 1019.2 hPa | 0 mm | - | 276 W/m² | - |
| 1777146026 | 8.33° C | 89% | 1019 hPa | 0 mm | - | 429 W/m² | - |
| 1777145722 | 7.78° C | 89% | 1019.2 hPa | 0 mm | - | 139 W/m² | - |
| 1777145417 | 7.78° C | 88% | 1019.3 hPa | 0 mm | - | 128 W/m² | - |
| 1777145113 | 8.33° C | 87% | 1019.3 hPa | 0 mm | - | 177 W/m² | - |
| 1777144812 | 7.78° C | 89% | 1019.3 hPa | 0 mm | - | 240 W/m² | - |
| 1777144511 | 7.78° C | 89% | 1019.1 hPa | 0 mm | - | 185 W/m² | - |
| 1777144208 | 7.78° C | 89% | 1019.1 hPa | 0 mm | - | 202 W/m² | - |
| 1777143904 | 7.78° C | 89% | 1019.2 hPa | 0 mm | - | 206 W/m² | - |
| 1777143601 | 7.78° C | 92% | 1019.1 hPa | 0 mm | - | 212 W/m² | - |
| 1777143296 | 7.22° C | 92% | 1019 hPa | 0 mm | - | 208 W/m² | - |
* Rain latest hour (hover to see other rain measurements)
** Current wind speed in m/s (hover to see current wind gust speed)